TimeMST,TemperatureF,Dew PointF,Humidity,Sea Level PressureIn,VisibilityMPH,Wind Direction,Wind SpeedMPH,Gust SpeedMPH,PrecipitationIn,Events,Conditions,WindDirDegrees,DateUTC
12:53 AM,33.1,12.0,42,30.10,10.0,Calm,Calm,-,N/A,,Clear,0,2013-01-13 07:53:00
2:53 AM,30.0,12.9,49,30.11,10.0,Calm,Calm,-,N/A,,Clear,0,2013-01-13 09:53:00
3:53 AM,28.9,12.0,49,30.11,10.0,Calm,Calm,-,N/A,,Clear,0,2013-01-13 10:53:00
5:53 AM,27.0,15.1,61,30.11,10.0,Calm,Calm,-,N/A,,Clear,0,2013-01-13 12:53:00
6:53 AM,28.0,12.9,53,30.12,10.0,Calm,Calm,-,N/A,,Clear,0,2013-01-13 13:53:00
7:53 AM,28.9,10.9,47,30.14,10.0,Calm,Calm,-,N/A,,Clear,0,2013-01-13 14:53:00
8:53 AM,34.0,14.0,44,30.15,10.0,Calm,Calm,-,N/A,,Clear,0,2013-01-13 15:53:00
9:53 AM,37.0,12.9,37,30.16,10.0,Calm,Calm,-,N/A,,Clear,0,2013-01-13 16:53:00
10:53 AM,41.0,10.0,28,30.14,10.0,SSW,6.9,-,N/A,,Clear,210,2013-01-13 17:53:00
11:53 AM,43.0,7.0,23,30.10,10.0,Calm,Calm,-,N/A,,Clear,0,2013-01-13 18:53:00
12:53 PM,45.0,5.0,19,30.06,10.0,SE,3.5,-,N/A,,Clear,140,2013-01-13 19:53:00
1:53 PM,45.0,5.0,19,30.05,10.0,Calm,Calm,-,N/A,,Clear,0,2013-01-13 20:53:00
2:53 PM,46.9,6.1,19,30.04,10.0,SSW,8.1,-,N/A,,Clear,200,2013-01-13 21:53:00
3:53 PM,46.0,3.9,18,30.05,10.0,WSW,3.5,-,N/A,,Clear,250,2013-01-13 22:53:00
4:53 PM,46.0,-0.0,15,30.05,10.0,WSW,6.9,-,N/A,,Clear,250,2013-01-13 23:53:00
5:53 PM,44.1,3.0,18,30.05,10.0,SW,3.5,-,N/A,,Clear,230,2013-01-14 00:53:00
6:53 PM,42.1,6.1,23,30.05,10.0,Calm,Calm,-,N/A,,Clear,0,2013-01-14 01:53:00
7:53 PM,39.0,8.1,28,30.05,10.0,Calm,Calm,-,N/A,,Clear,0,2013-01-14 02:53:00
8:53 PM,39.0,6.1,26,30.04,10.0,Calm,Calm,-,N/A,,Clear,0,2013-01-14 03:53:00
9:53 PM,36.0,10.9,36,30.04,10.0,Calm,Calm,-,N/A,,Clear,0,2013-01-14 04:53:00
10:53 PM,36.0,10.9,36,30.04,10.0,Calm,Calm,-,N/A,,Clear,0,2013-01-14 05:53:00
11:53 PM,35.1,12.0,39,30.05,10.0,Calm,Calm,-,N/A,,Clear,0,2013-01-14 06:53:00